Home   Weather   Târgu Mureş   Past weeks

Flag for Romania Past Weather in Târgu Mureş, Romania — Yesterday and Last 2 Weeks

Now
64 °F

Sunny.


Feels Like: 64 °F
Forecast: 43 / 67 °F
Wind: 6 mph from Southwest

Location: Tirgu Mures Airport

Current Time: Sep 28, 2016 at 6:29:06 PM

Latest Report: Sep 28, 2016 at 6:00 PM


Visibility: 10 mi

Pressure: 30.30 "Hg

Humidity: 56%

Dew Point: 48 °F

Location of Târgu MureşLocation

Past Weather in Târgu Mureş — Graph

°F

Târgu Mureş Temperature Yesterday

Maximum temperature yesterday: 66 °F (at 2:00 PM)
Minimum temperature yesterday: 39 °F (at 3:00 AM)
Average temperature yesterday: 53 °F

High & Low Weather Summary for the Past Weeks

 TemperatureHumidityPressure
High86 °F (Sep 17, 3:00 PM)100% (Sep 14, 5:00 AM)30.42 "Hg (Sep 14, 5:00 AM)
Low36 °F (Sep 23, 6:30 AM)33% (Sep 17, 3:30 PM)29.65 "Hg (Sep 19, 11:00 PM)
Average58 °F75%30.06 "Hg
* Reported Sep 13 5:00 PM — Sep 28 5:00 PM, Târgu Mureş, Weather by CustomWeather, © 2016

Note: Actual official high and low records may vary slightly from our data, if they occured in-between our weather recording intervals... More about our weather records

Advertising

Târgu Mureş Weather History for the Previous 24 Hours

Scroll right to see more
 ConditionsComfort  
Time TempWeatherWind HumidityBarometerVisibility
5:00 PM
Wed, Sep 28
70 °FPassing clouds.6 mph43%30.30 "HgN/A
4:30 PM72 °FPassing clouds.10 mph38%30.30 "HgN/A
4:00 PM68 °FPassing clouds.7 mph43%30.33 "HgN/A
3:30 PM68 °FPassing clouds.6 mph43%30.33 "HgN/A
3:00 PM70 °FPassing clouds.7 mph43%30.33 "HgN/A
2:30 PM68 °FSunny.5 mph46%30.33 "Hg10 mi
2:00 PM66 °FSunny.2 mph46%30.36 "Hg10 mi
1:30 PM64 °FSunny.2 mph52%30.39 "Hg10 mi
1:00 PM63 °FPassing clouds.3 mph56%30.39 "HgN/A
12:30 PM63 °FSunny.2 mph56%30.39 "Hg10 mi
12:00 PM61 °FSunny.2 mph55%30.39 "Hg10 mi
11:30 AM57 °FSunny.No wind67%30.39 "Hg10 mi
11:00 AM54 °FSunny.No wind77%30.42 "Hg10 mi
10:30 AM50 °FClear.No wind82%30.42 "Hg5 mi
10:00 AM46 °FClear.3 mph93%30.39 "Hg4 mi
9:30 AM45 °FClear.5 mph93%30.39 "Hg4 mi
9:00 AM43 °FPassing clouds.5 mph93%30.39 "Hg4 mi
8:30 AM39 °FPassing clouds.5 mph100%30.39 "Hg4 mi
8:00 AM36 °FLight fog.2 mph93%30.39 "Hg4 mi
7:30 AM37 °FLight fog.1 mph93%30.36 "Hg3 mi
7:00 AM36 °FLight fog.No wind93%30.36 "Hg2 mi
6:30 AM36 °FFog.No wind100%30.36 "Hg4 mi
6:00 AM36 °FFog.3 mph100%30.36 "Hg4 mi
5:30 AM37 °FFog.1 mph93%30.36 "Hg4 mi
5:00 AM37 °FFog.No wind93%30.36 "Hg4 mi
4:00 AM39 °FClear.3 mph93%30.36 "Hg5 mi
3:00 AM39 °FFog.2 mph93%30.36 "Hg5 mi
2:00 AM39 °FFog.No wind93%30.33 "Hg5 mi
1:00 AM41 °FClear.2 mph93%30.33 "Hg10 mi
12:00 AM41 °FClear.No wind93%30.33 "Hg10 mi
11:00 PM
Tue, Sep 27
43 °FClear.No wind87%30.33 "Hg10 mi
10:00 PM45 °FClear.2 mph87%30.33 "Hg10 mi
9:00 PM46 °FClear.3 mph82%30.30 "Hg10 mi
8:30 PM50 °FClear.No wind76%30.30 "Hg10 mi
8:00 PM50 °FClear.5 mph71%30.30 "Hg10 mi
7:30 PM57 °FClear.2 mph59%30.30 "Hg10 mi
7:00 PM57 °FPassing clouds.3 mph55%30.27 "HgN/A
6:30 PM61 °FSunny.5 mph48%30.27 "Hg10 mi
6:00 PM66 °FPassing clouds.5 mph37%30.27 "HgN/A
Weather by CustomWeather, © 2016

See weather overviewHow to use our weather pages